Location: Montreal
(45.5087°N, 73.5540°W)
Time: 22:22:17
(UTC-05:00)

Tiangong 2 - Visible Passes

Search period start: 15 December 2017 00:00
Search period end: 25 December 2017 00:00
Orbit: 386 x 390 km, 42.8° (Epoch: 15 December)

Date Brightness Start Highest point End Pass type
(mag) Time Alt. Az. Time Alt. Az. Time Alt. Az.
21 Dec 3.7 18:00:50 10° S 18:01:35 11° SSE 18:01:35 11° SSE visible
22 Dec 3.6 18:37:08 10° SW 18:38:15 17° SSW 18:38:15 17° SSW visible
23 Dec 3.1 17:39:15 10° SSW 17:41:32 18° SSE 17:42:34 16° SE visible
24 Dec 2.3 18:16:33 10° SW 18:19:07 34° S 18:19:07 34° S visible
